Location: Dompnac
(44.5644°N, 4.1026°E)
Time: 02:37:42
(UTC+00:00)

ISS - Visible Passes

Search period start: 19 May 2021 00:00
Search period end: 29 May 2021 00:00
Orbit: 417 x 422 km, 51.6° (Epoch: 18 May)

Date Brightness Start Highest point End Pass type
(mag) Time Alt. Az. Time Alt. Az. Time Alt. Az.
19 May -1.5 00:07:59 10° NW 00:09:22 21° NW 00:09:22 21° NW visible
19 May -2.6 20:05:35 10° W 20:08:50 47° NNW 20:12:08 10° NE visible
19 May -1.3 21:43:23 10° WNW 21:46:12 24° N 21:49:01 10° NE visible
19 May -1.9 23:20:34 10° NW 23:23:12 31° N 23:23:12 31° N visible
20 May -1.5 20:55:41 10° WNW 20:58:34 25° N 21:01:27 10° NE visible
20 May -1.7 22:33:05 10° NW 22:36:03 28° NNE 22:37:06 23° NE visible
21 May -0.9 00:09:48 10° WNW 00:10:02 12° WNW 00:10:02 12° WNW visible
21 May -1.7 20:07:56 10° WNW 20:10:56 29° NNW 20:13:56 10° NE visible
21 May -1.5 21:45:34 10° NW 21:48:25 25° N 21:51:02 11° ENE visible
21 May -1.7 23:22:21 10° NW 23:23:59 26° NW 23:23:59 26° NW visible
22 May -1.4 20:57:58 10° NW 21:00:46 23° N 21:03:34 10° ENE visible
22 May -2.6 22:34:55 10° NW 22:37:58 42° N 22:37:58 42° N visible
23 May -1.4 20:10:18 10° WNW 20:13:07 24° N 20:15:56 10° NE visible
23 May -2.2 21:47:28 10° NW 21:50:34 33° NNE 21:51:58 23° ENE visible
23 May -1.1 23:24:13 10° WNW 23:24:55 15° WNW 23:24:55 15° WNW visible
24 May -1.8 21:00:00 10° NW 21:02:57 28° NNE 21:05:55 10° ENE visible
24 May -2.5 22:36:42 10° WNW 22:38:57 39° WNW 22:38:57 39° WNW visible
25 May -1.6 20:12:27 10° NW 20:15:18 25° N 20:18:10 10° ENE visible
25 May -3.4 21:49:14 10° NW 21:52:35 60° NNE 21:53:00 54° ENE visible
26 May -2.8 21:01:47 10° NW 21:05:01 43° NNE 21:07:05 19° E visible
26 May -1.6 22:38:41 10° WNW 22:40:02 20° W 22:40:02 20° W visible
27 May -2.3 20:14:19 10° NW 20:17:26 33° NNE 20:20:32 10° E visible
27 May -3.5 21:51:04 10° WNW 21:54:08 55° WSW 21:54:08 55° WSW visible
28 May -3.8 21:03:32 10° WNW 21:06:55 89° S 21:08:17 33° ESE visible
